Select another period ( hide this area )

Eenheden Periode Custom range Directly to
Metrisch Engels Beide
Dagelijkse Wekelijkse Maandelijkse Jaarlijkse
use both date-selectors for a custom range
previous Dag
With this date

WeatherUnderground graphs for this period ( click here )


Dagelijkse Samenvatting Dinsdag 12 november 2019
Tijd Temp. ( °C ) Dew pt. ( °C ) Wind ( km/h ) van Windvlaag ( km/h ) Luchtdruk ( hPa ) Humid.( % ) Rainrate ( cm )
Hoog7,7 6,1 29,0 Zuiden ( 157/289 ) 33,8 997,9 96 3,30
Gemiddeld5,2 4,2 7,1 Zuiden #18/41 18,7 997,2 93 2,30
Laag4,2 3,3 -   6,4 996,8 88 -
Dagelijkse Tabular details for Dinsdag 12 november 2019
Tijd Temp. ( °C ) Dew pt. ( °C ) Wind ( km/h ) van Windvlaag ( km/h ) Luchtdruk ( hPa ) Humid.( % ) Rainrate ( cm )
00:00 7,7 6,1 3,2 WZW 14,5 997,5 88 0,50
00:15 7,6 5,6 3,2 Westen 16,1 997,5 88 0,30
00:45 7,1 5,6 3,2 ZZW 9,7 997,9 88 0,50
01:00 5,9 4,4 8,0 ZZO 33,8 997,5 89 1,50
01:15 5,9 4,4 8,0 Zuiden 9,7 997,2 91 1,50
01:30 6,0 5,0 4,8 Zuiden 12,9 997,2 92 2,00
01:45 5,8 5,0   Kalm 9,7 997,2 93 2,50
02:15 5,0 3,9 9,7 ZO 16,1 997,2 94 3,30
02:30 5,1 4,4 11,3 ZZW 19,3 997,2 95 2,80
02:45 4,9 4,4   Kalm 17,7 997,2 95 1,50
03:00 4,9 4,4 4,8 Zuiden 9,7 997,2 95 1,50
03:30 5,3 5,0 3,2 Zuiden 6,4 997,2 96 0,30
03:45 5,3 4,4   Kalm 8,0 996,8 95 0,30
04:00 5,9 5,6   Kalm 8,0 996,8 96 -
04:15 6,4 5,6 8,0 Westen 11,3 996,8 95 -
04:30 6,7 5,6 4,8 Zuiden 11,3 996,8 93 -
05:00 5,6 4,4 8,0 ZZW 17,7 996,8 93 -
05:30 5,4 4,4   Kalm 16,1 996,8 94 0,50
06:00 5,4 4,4 9,7 ZZO 17,7 996,8 94 1,00
06:15 5,3 4,4 3,2 Zuiden 17,7 996,8 94 0,80
06:30 5,2 4,4 12,9 ZZO 24,1 997,2 94 0,50
06:45 5,2 4,4 9,7 Zuiden 22,5 997,2 94 0,30
07:00 4,4 3,3 8,0 Oosten 22,5 997,5 93 1,50
07:15 4,6 3,9 4,8 ZZO 20,9 997,2 94 1,80
08:00 4,2 3,3 4,8 ZZW 17,7 997,5 94 0,80
08:45 4,2 3,3 4,8 ZZO 20,9 997,5 94 1,30
09:00 4,3 3,3 8,0 ZO 22,5 997,5 94 1,30
09:15 4,2 3,3 9,7 Zuiden 27,4 997,5 94 1,50
09:30 4,3 3,3 4,8 Zuiden 24,1 997,5 94 1,30
09:45 4,3 3,3 9,7 ZZW 24,1 997,2 94 1,00
10:15 4,2 3,3 14,5 Zuiden 24,1 997,2 94 0,50
10:30 4,2 3,3 6,4 Zuiden 24,1 997,5 94 0,50
10:45 4,2 3,3 3,2 Westen 16,1 997,5 94 0,30
11:00 4,2 3,3 11,3 ZZW 24,1 997,2 94 -
11:15 4,5 3,9 3,2 Zuiden 19,3 997,2 94 -
11:30 4,6 3,9 4,8 Zuiden 24,1 997,2 94 -
12:00 4,7 3,9 8,0 Zuiden 20,9 996,8 93 -
12:15 4,7 3,9 8,0 Zuiden 22,5 996,8 93 -
12:30 4,6 3,9 29,0 Zuiden 29,0 996,8 93 -
12:45 4,5 3,3 22,5 Zuiden 25,7 996,8 93 -
13:00 5,1 3,9 8,0 Zuiden 27,4 996,8 92 -
Dagelijkse Samenvatting Dinsdag 12 november 2019
Tijd Temp. ( °C ) Dew pt. ( °C ) Wind ( km/h ) van Windvlaag ( km/h ) Luchtdruk ( hPa ) Humid.( % ) Rainrate ( cm )
Hoog7,7 6,1 29,0 Zuiden ( 157/289 ) 33,8 997,9 96 3,30
Gemiddeld5,2 4,2 7,1 Zuiden #18/41 18,7 997,2 93 2,30
Laag4,2 3,3 -   6,4 996,8 88 -
Dagelijkse Tabular details for Dinsdag 12 november 2019
Tijd Temp. ( °C ) Dew pt. ( °C ) Wind ( km/h ) van Windvlaag ( km/h ) Luchtdruk ( hPa ) Humid.( % ) Rainrate ( cm )
00:00 7,7 6,1 3,2 WZW 14,5 997,5 88 0,50
00:15 7,6 5,6 3,2 Westen 16,1 997,5 88 0,30
00:45 7,1 5,6 3,2 ZZW 9,7 997,9 88 0,50
01:00 5,9 4,4 8,0 ZZO 33,8 997,5 89 1,50
01:15 5,9 4,4 8,0 Zuiden 9,7 997,2 91 1,50
01:30 6,0 5,0 4,8 Zuiden 12,9 997,2 92 2,00
01:45 5,8 5,0   Kalm 9,7 997,2 93 2,50
02:15 5,0 3,9 9,7 ZO 16,1 997,2 94 3,30
02:30 5,1 4,4 11,3 ZZW 19,3 997,2 95 2,80
02:45 4,9 4,4   Kalm 17,7 997,2 95 1,50
03:00 4,9 4,4 4,8 Zuiden 9,7 997,2 95 1,50
03:30 5,3 5,0 3,2 Zuiden 6,4 997,2 96 0,30
03:45 5,3 4,4   Kalm 8,0 996,8 95 0,30
04:00 5,9 5,6   Kalm 8,0 996,8 96 -
04:15 6,4 5,6 8,0 Westen 11,3 996,8 95 -
04:30 6,7 5,6 4,8 Zuiden 11,3 996,8 93 -
05:00 5,6 4,4 8,0 ZZW 17,7 996,8 93 -
05:30 5,4 4,4   Kalm 16,1 996,8 94 0,50
06:00 5,4 4,4 9,7 ZZO 17,7 996,8 94 1,00
06:15 5,3 4,4 3,2 Zuiden 17,7 996,8 94 0,80
06:30 5,2 4,4 12,9 ZZO 24,1 997,2 94 0,50
06:45 5,2 4,4 9,7 Zuiden 22,5 997,2 94 0,30
07:00 4,4 3,3 8,0 Oosten 22,5 997,5 93 1,50
07:15 4,6 3,9 4,8 ZZO 20,9 997,2 94 1,80
08:00 4,2 3,3 4,8 ZZW 17,7 997,5 94 0,80
08:45 4,2 3,3 4,8 ZZO 20,9 997,5 94 1,30
09:00 4,3 3,3 8,0 ZO 22,5 997,5 94 1,30
09:15 4,2 3,3 9,7 Zuiden 27,4 997,5 94 1,50
09:30 4,3 3,3 4,8 Zuiden 24,1 997,5 94 1,30
09:45 4,3 3,3 9,7 ZZW 24,1 997,2 94 1,00
10:15 4,2 3,3 14,5 Zuiden 24,1 997,2 94 0,50
10:30 4,2 3,3 6,4 Zuiden 24,1 997,5 94 0,50
10:45 4,2 3,3 3,2 Westen 16,1 997,5 94 0,30
11:00 4,2 3,3 11,3 ZZW 24,1 997,2 94 -
11:15 4,5 3,9 3,2 Zuiden 19,3 997,2 94 -
11:30 4,6 3,9 4,8 Zuiden 24,1 997,2 94 -
12:00 4,7 3,9 8,0 Zuiden 20,9 996,8 93 -
12:15 4,7 3,9 8,0 Zuiden 22,5 996,8 93 -
12:30 4,6 3,9 29,0 Zuiden 29,0 996,8 93 -
12:45 4,5 3,3 22,5 Zuiden 25,7 996,8 93 -
13:00 5,1 3,9 8,0 Zuiden 27,4 996,8 92 -

Download your copy of this data-set  here

Our weather-data as stored at Weather Underground. Script ontwikkeld door Jim McMurry. Aangepast voor de template door Leuven-Template.eu

U vindt ons ook hier:

Het Weer Aktueel

European Weather Network

WeatherCloud

Weather Underground

Benelux Weer Netwerk

Apparatuur in gebruik:

Weerstation
Davis VP2

Weerprogramma
consoleWD

Weercomputer
Raspberry

Webleverancier
Stef van Bakel koeltechniek

Davis VP2

consoleWD

Raspberry

Stef van Bakel koeltechniek